Weather History for Scottsbluff, NE

Change the Weather History Date:

Tuesday, February 19, 2013

  Actual Average Record
Temperature  
Mean Temperature 24 °F 31 °F  
Max Temperature 43 °F 45 °F 74 °F (1981)
Min Temperature 5 °F 17 °F -14 °F (1929)
Degree Days  
Heating Degree Days 41 34  
Month to date heating degree days 622 677  
Since 1 July heating degree days 4183 4619  
Cooling Degree Days 0 0  
Month to date cooling degree days 0 0  
Year to date cooling degree days 0 0  
Moisture  
Dew Point 12 °F    
Average Humidity 64    
Maximum Humidity 91    
Minimum Humidity 36    
Precipitation  
Precipitation 0.00 in 0.02 in 0.40 in (1912)
Month to date precipitation 0.06 0.37  
Year to date precipitation 0.32 0.78  
Snow  
Snow 0.00 in 0.20 in 5.50 in (1953)
Month to date snowfall 0.6 4.6  
Since 1 July snowfall 18.4 26.0  
Snow Depth 0.00 in    
Sea Level Pressure  
Sea Level Pressure 30.13 in    
Wind  
Wind Speed 13 mph (ESE)    
Max Wind Speed 24 mph    
Max Gust Speed 31 mph    
Visibility 10 miles    
Events      
T = Trace of Precipitation, MM = Missing Value Source: NWS Daily Summary

Daily Weather History Graph

Daily Weather History Graph

Search for Another Location

Airport:

Trip Planner

Search our weather history database for the weather conditions in past years. The results will help you decide how hot, cold, wet, or windy it might be!

Date:

Astronomy

Feb. 19, 2013 Rise Set
Actual Time 6:44 AM MST 5:32 PM MST
Civil Twilight 6:15 AM MST 6:01 PM MST
Nautical Twilight 5:43 AM MST 6:33 PM MST
Astronomical Twilight 5:11 AM MST 7:06 PM MST
Moon 12:03 PM MST (2/19) 2:20 AM MST (2/19)
Length of Visible Light 11h 45m
Length of Day
10h 48m
Waxing Gibbous, 68% of the Moon is Illuminated
Feb 19
Waxing Gibbous
Feb 25
Full
Mar 4
Last Quarter
Mar 11
New
Mar 19
First Quarter

Hourly Weather History & Observations

Time (MST) Temp. Windchill Dew Point Humidity Pressure Visibility Wind Dir Wind Speed Gust Speed Precip Events Conditions
12:53 AM 10.0 °F 1.8 °F 6.1 °F 84% 30.23 in 10.0 mi North 4.6 mph - N/A   Clear
1:53 AM 10.0 °F - 6.1 °F 84% 30.23 in 10.0 mi Calm Calm - N/A   Clear
2:53 AM 8.1 °F - 3.9 °F 83% 30.23 in 10.0 mi Calm Calm - N/A   Clear
3:53 AM 6.1 °F - 1.9 °F 83% 30.23 in 10.0 mi Calm Calm - N/A   Clear
4:53 AM 7.0 °F -1.7 °F 3.0 °F 84% 30.23 in 10.0 mi NE 4.6 mph - N/A   Clear
5:53 AM 9.0 °F 0.6 °F 6.1 °F 88% 30.25 in 10.0 mi East 4.6 mph - N/A   Clear
6:53 AM 7.0 °F -1.7 °F 3.0 °F 84% 30.26 in 10.0 mi SSE 4.6 mph - N/A   Clear
7:53 AM 14.0 °F 2.9 °F 10.0 °F 84% 30.24 in 10.0 mi ESE 8.1 mph - N/A   Clear
8:53 AM 19.9 °F 6.7 °F 15.1 °F 81% 30.24 in 10.0 mi ESE 13.8 mph - N/A   Clear
9:53 AM 26.1 °F 14.5 °F 18.0 °F 71% 30.20 in 10.0 mi ESE 13.8 mph - N/A   Clear
11:53 AM 35.1 °F 25.2 °F 19.9 °F 54% 30.13 in 10.0 mi SSE 16.1 mph - N/A   Clear
12:53 PM 42.1 °F 33.9 °F 18.0 °F 38% 30.07 in 10.0 mi SE 17.3 mph 26.5 mph N/A   Clear
1:53 PM 41.0 °F 32.5 °F 18.0 °F 40% 30.04 in 10.0 mi SE 17.3 mph - N/A   Clear
2:53 PM 41.0 °F 32.5 °F 17.1 °F 38% 30.04 in 10.0 mi SSE 17.3 mph - N/A   Clear
3:53 PM 41.0 °F 31.6 °F 18.0 °F 40% 30.03 in 10.0 mi SE 20.7 mph 27.6 mph N/A   Clear
5:53 PM 35.1 °F 23.5 °F 17.1 °F 48% 30.04 in 10.0 mi ESE 21.9 mph - N/A   Clear
6:53 PM 30.9 °F 18.7 °F 16.0 °F 54% 30.07 in 10.0 mi ESE 19.6 mph - N/A   Clear
7:53 PM 28.9 °F 16.1 °F 17.1 °F 61% 30.06 in 10.0 mi ESE 19.6 mph - N/A   Clear
8:53 PM 27.0 °F 13.9 °F 17.1 °F 66% 30.06 in 10.0 mi ESE 18.4 mph - N/A   Clear
9:53 PM 26.1 °F 12.0 °F 17.1 °F 69% 30.04 in 10.0 mi ESE 20.7 mph - N/A   Clear
10:53 PM 24.1 °F 9.8 °F 15.1 °F 69% 30.03 in 10.0 mi ESE 19.6 mph - N/A   Clear
11:53 PM 21.9 °F 6.9 °F 14.0 °F 72% 30.01 in 10.0 mi ESE 19.6 mph - N/A   Clear